EW9837 Weather Reports


Display with metric or nautical units.
time (UTC)temp
F
wind
direction
speed
MPH
gust
MPH
rain 1hr
in
rain 24hr
in
rain mn
in
humidity
%
barometer
mb
20200331164533 37 319 4.0 0.0 0.00 0.88 0.32 91 1.1
20200331163050 36 326 3.0 0.0 0.00 0.90 0.32 92 1.1
20200331161542 37 327 4.0 0.0 0.00 0.90 0.32 92 1.1
20200331160031 37 46 2.0 0.0 0.00 0.92 0.32 93 1.1
20200331154617 37 49 2.0 0.0 0.00 0.95 0.32 94 1.1
20200331153039 38 348 2.0 0.0 0.00 0.98 0.32 94 1.1
20200331151536 36 1 0.0 0.0 0.00 1.02 0.32 96 1.1
20200331150103 34 53 1.0 0.0 0.01 1.05 0.32 97 1.1
20200331144531 34 77 0.0 0.0 0.02 1.09 0.32 97 1.1
20200331143038 33 181 2.0 0.0 0.03 1.12 0.32 97 1.1
20200331141552 33 167 4.0 0.0 0.05 1.14 0.32 97 1.1
20200331140040 33 169 5.0 0.0 0.04 1.17 0.31 97 1.1
20200331134538 33 174 3.0 0.0 0.03 1.18 0.30 97 1.1
20200331133030 33 181 2.0 0.0 0.04 1.18 0.28 97 1.1
20200331131546 33 198 3.0 0.0 0.03 1.17 0.27 97 1.1
20200331130040 33 171 3.0 0.0 0.05 1.21 0.27 97 1.1
20200331124542 34 131 3.0 0.0 0.08 1.24 0.27 97 1.1
20200331123032 34 24 2.0 0.0 0.06 1.23 0.25 97 1.1
20200331121532 34 324 1.0 0.0 0.07 1.25 0.24 97 1.1
20200331120031 34 279 3.0 0.0 0.05 1.24 0.22 98 1.1
20200331114542 33 204 2.0 0.0 0.04 1.23 0.19 98 1.1
20200331113033 33 156 3.0 0.0 0.04 1.25 0.19 98 1.1
20200331111532 33 167 0.0 0.0 0.02 1.24 0.17 97 1.1
20200331110032 33 281 0.0 0.0 0.03 1.25 0.17 97 1.1
20200331104622 33 290 1.0 0.0 0.02 1.23 0.15 97 1.1
20200331103044 34 86 0.0 0.0 0.04 1.26 0.15 97 1.1
20200331100035 34 336 1.0 0.0 0.04 1.26 0.14 97 1.1
20200331094548 34 18 2.0 0.0 0.04 1.27 0.13 97 1.1
20200331093028 34 236 1.0 0.0 0.03 1.26 0.11 97 1.1
20200331091537 34 166 1.0 0.0 0.02 1.25 0.10 97 1.1
20200331090039 34 292 0.0 0.0 0.03 1.25 0.10 97 1.1
20200331084543 34 290 0.0 0.0 0.04 1.24 0.09 97 1.1
20200331083044 34 94 0.0 0.0 0.03 1.23 0.08 97 1.1
20200331081610 34 142 1.0 0.0 0.04 1.23 0.08 97 1.1
20200331080036 34 150 1.0 0.0 0.05 1.22 0.07 97 1.1
20200331074545 33 135 0.0 0.0 0.05 1.20 0.05 97 1.1
20200331073038 33 68 0.0 0.0 0.07 1.20 0.05 97 1.1
20200331071533 33 291 0.0 0.0 0.09 1.19 0.04 97 1.1
20200331070032 34 290 2.0 0.0 0.09 1.17 0.02 97 1.1
20200331064551 34 310 1.0 0.0 0.09 1.14 1.14 97 1.1
20200331063030 35 65 1.0 0.0 0.07 1.12 1.12 97 1.1
20200331061530 35 294 0.0 0.0 0.05 1.10 1.10 97 1.1
20200331060050 35 293 1.0 0.0 0.03 1.08 1.08 96 1.1
20200331054532 35 319 1.0 0.0 0.02 1.06 1.06 96 1.1
20200331053114 35 352 1.0 0.0 0.02 1.06 1.06 96 1.1
20200331051539 35 58 0.0 0.0 0.01 1.06 1.05 96 1.1
20200331050115 35 50 1.0 0.0 0.02 1.08 1.05 96 1.1
20200331044551 35 2 2.0 0.0 0.01 1.08 1.04 96 1.1
20200331043040 36 2 2.0 0.0 0.02 1.08 1.04 95 1.1
20200331041538 36 302 1.0 0.0 0.04 1.08 1.04 95 1.1
20200331040043 36 144 1.0 0.0 0.05 1.08 1.03 95 1.1
20200331034535 36 50 0.0 0.0 0.06 1.08 1.03 95 1.1
20200331033033 36 72 2.0 0.0 0.06 1.07 1.02 94 1.1
20200331031546 36 50 1.0 0.0 0.05 1.05 1.00 94 1.1
20200331030043 36 260 0.0 0.0 0.04 1.03 0.98 93 1.1
20200331024546 36 3 1.0 0.0 0.04 1.03 0.97 92 1.1
20200331023036 36 241 0.0 0.0 0.03 1.02 0.96 92 1.1
20200331021551 36 180 2.0 0.0 0.03 1.02 0.95 92 1.1
20200331020032 37 208 2.0 0.0 0.04 1.02 0.94 91 1.1
20200331014546 38 140 4.0 0.0 0.04 1.01 0.93 90 1.1
20200331011617 38 122 5.0 0.0 0.05 1.00 0.92 88 1.1
20200331010052 39 270 2.0 0.0 0.04 0.98 0.90 85 1.1
20200331004534 39 299 3.0 0.0 0.04 0.97 0.89 85 1.1
20200331003102 39 292 2.0 0.0 0.04 0.96 0.88 85 1.1
20200331001548 39 244 3.0 0.0 0.06 0.95 0.87 85 1.1
20200331000111 39 255 3.0 0.0 0.07 0.94 0.86 86 1.1
20200330234534 38 243 7.0 0.0 0.07 0.93 0.85 87 1.1
20200330233045 38 314 3.0 0.0 0.06 0.92 0.84 87 1.1
20200330231539 39 317 5.0 0.0 0.03 0.89 0.81 83 1.1
20200330230044 41 280 4.0 0.0 0.01 0.87 0.79 79 1.1
20200330224533 41 233 5.0 0.0 0.01 0.86 0.78 79 1.1
20200330223031 41 233 7.0 0.0 0.01 0.86 0.78 80 1.1
20200330221545 40 214 4.0 0.0 0.01 0.86 0.00 83 1.1
20200330220046 40 254 4.0 0.0 0.03 0.86 0.00 84 1.1
20200330214548 39 276 5.0 0.0 0.03 0.85 0.00 86 1.1
20200330213040 39 316 3.0 0.0 0.04 0.85 0.00 87 1.1
20200330211547 39 301 2.0 0.0 0.05 0.85 0.00 87 1.1
20200330210035 39 295 1.0 0.0 0.04 0.83 0.00 86 1.1
20200330204532 39 285 4.0 0.0 0.03 0.82 0.00 85 1.1
20200330203037 39 217 5.0 0.0 0.02 0.81 0.00 86 1.1
20200330201534 39 273 3.0 0.0 0.02 0.80 0.00 87 1.1
20200330200034 39 306 2.0 0.0 0.02 0.79 0.00 87 1.1
20200330194619 38 278 3.0 0.0 0.04 0.79 0.00 87 1.1
20200330193102 38 289 1.0 0.0 0.05 0.79 0.00 88 1.1
20200330191616 37 339 1.0 0.0 0.05 0.78 0.00 89 1.1
20200330190030 37 286 1.0 0.0 0.05 0.77 0.00 88 1.1
20200330184539 37 257 4.0 0.0 0.04 0.75 0.00 88 1.1
20200330183053 36 278 3.0 0.0 0.05 0.74 0.00 88 1.1
20200330181534 37 278 5.0 0.0 0.05 0.73 0.00 85 1.1
20200330180038 38 234 8.0 0.0 0.04 0.73 0.00 82 1.1
20200330174530 38 232 11.0 0.0 0.04 0.72 0.00 83 1.1
20200330173029 38 247 8.0 0.0 0.04 0.70 0.00 85 1.1
20200330171535 38 255 4.0 0.0 0.03 0.69 0.00 87 1.1
20200330170041 38 219 6.0 0.0 0.05 0.69 0.00 87 1.1